Weather History for Santa Ana, CA

Change the Weather History Date:

Tuesday, November 26, 2013

  Actual Average Record
Temperature  
Mean Temperature 62 °F 59 °F  
Max Temperature 75 °F 69 °F 84 °F (2014)
Min Temperature 49 °F 49 °F 43 °F (2010)
Degree Days  
Heating Degree Days 3 6  
Month to date heating degree days 51 99  
Since 1 July heating degree days 69 126  
Cooling Degree Days 0 0  
Month to date cooling degree days 26 22  
Year to date cooling degree days 1157 876  
Growing Degree Days 12 (Base 50)    
Moisture  
Dew Point 44 °F    
Average Humidity 50    
Maximum Humidity 77    
Minimum Humidity 23    
Precipitation  
Precipitation 0.00 in 0.03 in 1.10 in (2008)
Month to date precipitation 0.27 1.12  
Year to date precipitation 2.56 11.12  
Since 1 July precipitation 0.59 2.16  
Snow  
Snow 0.00 in - - ()
Month to date snowfall 0.0  
Year to date snowfall 0.0  
Since 1 July snowfall 0.0  
Snow Depth 0.00 in    
Sea Level Pressure  
Sea Level Pressure 30.11 in    
Wind  
Wind Speed 2 mph (WSW)    
Max Wind Speed 10 mph    
Max Gust Speed 12 mph    
Visibility 10 miles    
Events      
T = Trace of Precipitation, MM = Missing Value Source: NWS Daily Summary

Daily Weather History Graph

Daily Weather History Graph

Search for Another Location

Airport:

Trip Planner

Search our weather history database for the weather conditions in past years. The results will help you decide how hot, cold, wet, or windy it might be!

Date:

Astronomy

Nov. 26, 2013 Rise Set
Actual Time 6:33 AM PST 4:43 PM PST
Civil Twilight 6:06 AM PST 5:10 PM PST
Nautical Twilight 5:36 AM PST 5:41 PM PST
Astronomical Twilight 5:06 AM PST 6:11 PM PST
Moon 12:00 AM PST 12:36 PM PST
Length of Visible Light 11h 04m
Length of Day
10h 09m
Last Quarter, 40% of the Moon is Illuminated
Nov 26
Last Quarter
Dec 2
New
Dec 9
First Quarter
Dec 17
Full
Dec 25
Last Quarter

Hourly Weather History & Observations

Time (PST) Temp. Dew Point Humidity Pressure Visibility Wind Dir Wind Speed Gust Speed Precip Events Conditions
12:53 AM 54.0 °F 46.0 °F 75% 30.18 in 10.0 mi Calm Calm - N/A   Clear
1:53 AM 52.0 °F 45.0 °F 77% 30.18 in 10.0 mi NNE 3.5 mph - N/A   Clear
2:53 AM 51.1 °F 43.0 °F 74% 30.17 in 10.0 mi Calm Calm - N/A   Clear
3:53 AM 51.1 °F 41.0 °F 68% 30.17 in 10.0 mi Calm Calm - N/A   Clear
4:53 AM 51.1 °F 43.0 °F 74% 30.17 in 10.0 mi Calm Calm - N/A   Clear
5:53 AM 50.0 °F 42.1 °F 74% 30.17 in 10.0 mi Calm Calm - N/A   Scattered Clouds
6:53 AM 50.0 °F 41.0 °F 71% 30.17 in 10.0 mi Calm Calm - N/A   Scattered Clouds
7:53 AM 55.9 °F 43.0 °F 62% 30.18 in 10.0 mi Calm Calm - N/A   Mostly Cloudy
8:53 AM 63.0 °F 43.0 °F 48% 30.18 in 10.0 mi Calm Calm - N/A   Unknown
9:53 AM 68.0 °F 43.0 °F 40% 30.16 in 10.0 mi Calm Calm - N/A   Scattered Clouds
10:53 AM 70.0 °F 41.0 °F 35% 30.14 in 10.0 mi NNW 3.5 mph - N/A   Mostly Cloudy
11:53 AM 72.0 °F 44.1 °F 37% 30.11 in 10.0 mi SW 6.9 mph - N/A   Mostly Cloudy
12:53 PM 72.0 °F 37.9 °F 29% 30.08 in 10.0 mi WSW 3.5 mph - N/A   Mostly Cloudy
1:53 PM 75.0 °F 35.1 °F 23% 30.06 in 10.0 mi WSW 5.8 mph - N/A   Mostly Cloudy
2:53 PM 71.1 °F 44.1 °F 38% 30.05 in 10.0 mi SW 8.1 mph - N/A   Scattered Clouds
3:53 PM 69.1 °F 44.1 °F 40% 30.05 in 10.0 mi SW 3.5 mph - N/A   Scattered Clouds
4:53 PM 66.0 °F 50.0 °F 56% 30.04 in 10.0 mi Calm Calm - N/A   Scattered Clouds
5:53 PM 64.9 °F 51.1 °F 61% 30.06 in 10.0 mi South 3.5 mph - N/A   Scattered Clouds
6:53 PM 64.0 °F 46.0 °F 52% 30.06 in 10.0 mi ENE 4.6 mph - N/A   Scattered Clouds
7:53 PM 64.0 °F 46.0 °F 52% 30.05 in 10.0 mi Calm Calm - N/A   Scattered Clouds
8:53 PM 61.0 °F 46.0 °F 58% 30.05 in 10.0 mi Calm Calm - N/A   Partly Cloudy
9:53 PM 61.0 °F 45.0 °F 56% 30.05 in 10.0 mi Calm Calm - N/A   Partly Cloudy
10:53 PM 57.9 °F 44.1 °F 60% 30.04 in 10.0 mi Calm Calm - N/A   Clear
11:53 PM 57.9 °F 45.0 °F 62% 30.04 in 10.0 mi Calm Calm - N/A   Clear